Weather History for Mason City, IA

Change the Weather History Date:

Wednesday, August 7, 2013

  Actual Average Record
Temperature  
Mean Temperature 65 °F 70 °F  
Max Temperature 76 °F 81 °F 102 °F (1894)
Min Temperature 54 °F 59 °F 46 °F (1989)
Degree Days  
Heating Degree Days 0 1  
Month to date heating degree days 3 2  
Since 1 June heating degree days 76 55  
Since 1 July heating degree days 23 11  
Cooling Degree Days 0 6  
Month to date cooling degree days 18 42  
Year to date cooling degree days 426 436  
Since 1 June cooling degree days 389 401  
Growing Degree Days 17 (Base 50)    
Moisture  
Dew Point 59 °F    
Average Humidity 76    
Maximum Humidity 97    
Minimum Humidity 54    
Precipitation  
Precipitation 0.00 in 0.13 in 1.75 in (1991)
Month to date precipitation 1.01 0.95  
Year to date precipitation 32.10 23.27  
Snow  
Snow 0.00 in 0.00 in - ()
Month to date snowfall 0.0 0.0  
Since 1 June snowfall 0.0 0.0  
Since 1 July snowfall 0.0 0.0  
Snow Depth 0.00 in    
Sea Level Pressure  
Sea Level Pressure 29.93 in    
Wind  
Wind Speed 9 mph (NNW)    
Max Wind Speed 17 mph    
Max Gust Speed 23 mph    
Visibility 10 miles    
Events      
T = Trace of Precipitation, MM = Missing Value Source: NWS Daily Summary

Daily Weather History Graph

Daily Weather History Graph

Search for Another Location

Airport:

Trip Planner

Search our weather history database for the weather conditions in past years. The results will help you decide how hot, cold, wet, or windy it might be!

Date:

Astronomy

Aug. 07, 2013 Rise Set
Actual Time 6:10 AM CDT 8:26 PM CDT
Civil Twilight 5:38 AM CDT 8:58 PM CDT
Nautical Twilight 4:59 AM CDT 9:37 PM CDT
Astronomical Twilight 4:16 AM CDT 10:20 PM CDT
Moon 7:02 AM CDT (8/7) 8:30 PM CDT (8/7)
Length of Visible Light 15h 19m
Length of Day
14h 16m
New Moon, 1% of the Moon is Illuminated
Aug 7
New Moon
Aug 14
First Quarter
Aug 20
Full
Aug 28
Last Quarter
Sep 5
New

Hourly Weather History & Observations

Time (CDT) Temp. Dew Point Humidity Pressure Visibility Wind Dir Wind Speed Gust Speed Precip Events Conditions
12:53 AM 73.9 °F 66.0 °F 76% 29.80 in 10.0 mi West 6.9 mph - N/A   Mostly Cloudy
1:53 AM 69.1 °F 64.9 °F 87% 29.81 in 10.0 mi WNW 6.9 mph - N/A   Partly Cloudy
2:53 AM 66.0 °F 63.0 °F 90% 29.81 in 10.0 mi West 6.9 mph - N/A   Clear
3:53 AM 66.0 °F 62.1 °F 87% 29.81 in 10.0 mi NW 9.2 mph - N/A   Clear
4:53 AM 63.0 °F 57.9 °F 84% 29.82 in 10.0 mi NNW 8.1 mph - N/A   Clear
5:53 AM 61.0 °F 57.9 °F 90% 29.83 in 10.0 mi NW 9.2 mph - N/A   Clear
6:53 AM 61.0 °F 59.0 °F 93% 29.86 in 10.0 mi NNW 10.4 mph - N/A   Scattered Clouds
7:05 AM 60.8 °F 59.0 °F 94% 29.89 in 9.0 mi NNW 12.7 mph - N/A   Mostly Cloudy
7:26 AM 62.6 °F 60.8 °F 94% 29.91 in 7.0 mi NNW 11.5 mph - N/A   Overcast
7:53 AM 62.1 °F 60.1 °F 93% 29.89 in 7.0 mi NNW 11.5 mph - N/A   Overcast
8:16 AM 62.6 °F 60.8 °F 94% 29.93 in 9.0 mi NNW 10.4 mph - N/A   Overcast
8:53 AM 63.0 °F 59.0 °F 87% 29.92 in 10.0 mi NNW 10.4 mph - N/A   Overcast
9:53 AM 64.0 °F 60.1 °F 87% 29.94 in 10.0 mi NNW 15.0 mph - N/A   Overcast
10:26 AM 66.2 °F 60.8 °F 83% 29.98 in 10.0 mi NNW 11.5 mph - N/A   Overcast
10:53 AM 66.9 °F 60.1 °F 79% 29.97 in 10.0 mi NNW 11.5 mph - N/A   Overcast
11:53 AM 68.0 °F 60.1 °F 76% 29.98 in 10.0 mi NNW 12.7 mph - N/A   Overcast
12:53 PM 71.1 °F 59.0 °F 66% 29.97 in 10.0 mi NNW 11.5 mph - N/A   Mostly Cloudy
1:37 PM 73.4 °F 59.0 °F 61% 30.00 in 10.0 mi North 13.8 mph 20.7 mph N/A   Partly Cloudy
1:53 PM 73.0 °F 59.0 °F 61% 29.96 in 10.0 mi NW 12.7 mph - N/A   Partly Cloudy
2:53 PM 73.9 °F 57.9 °F 57% 29.96 in 10.0 mi NNW 12.7 mph - N/A   Clear
3:53 PM 75.0 °F 57.9 °F 55% 29.95 in 10.0 mi North 11.5 mph - N/A   Clear
4:53 PM 75.0 °F 57.9 °F 55% 29.96 in 10.0 mi North 12.7 mph - N/A   Clear
5:53 PM 73.9 °F 57.0 °F 55% 29.96 in 10.0 mi North 10.4 mph - N/A   Clear
6:53 PM 71.1 °F 55.9 °F 59% 29.97 in 10.0 mi North 9.2 mph - N/A   Clear
7:53 PM 66.9 °F 57.0 °F 70% 29.98 in 10.0 mi NNE 3.5 mph - N/A   Clear
8:53 PM 63.0 °F 55.0 °F 75% 30.01 in 10.0 mi NNW 5.8 mph - N/A   Clear
9:53 PM 60.1 °F 55.0 °F 83% 30.03 in 10.0 mi NNW 4.6 mph - N/A   Clear
10:53 PM 59.0 °F 54.0 °F 83% 30.04 in 10.0 mi NNW 5.8 mph - N/A   Clear
11:53 PM 57.0 °F 54.0 °F 89% 30.04 in 10.0 mi North 4.6 mph - N/A   Clear